Satellite: NOAA-12 Catalog number: 21263 Epoch time: 07278.57099791 Element set: 0373 Inclination: 098.7616 deg RA of node: 275.6654 deg Eccentricity: 0.0013030 Arg of perigee: 144.5545 deg Mean anomaly: 215.6495 deg Mean motion: 14.25495663 rev/day Decay rate: -6.8e-07 rev/day^2 Epoch rev: 85197 Checksum: 341
Satellite: MET-3/5 Catalog number: 21655 Epoch time: 07278.93595712 Element set: 0357 Inclination: 082.5510 deg RA of node: 284.6983 deg Eccentricity: 0.0012341 Arg of perigee: 295.8061 deg Mean anomaly: 064.1784 deg Mean motion: 13.17012506 rev/day Decay rate: 5.1e-07 rev/day^2 Epoch rev: 77598 Checksum: 319
Satellite: MET-2/21 Catalog number: 22782 Epoch time: 07279.51714569 Element set: 951 Inclination: 082.5478 deg RA of node: 313.6033 deg Eccentricity: 0.0020864 Arg of perigee: 285.4148 deg Mean anomaly: 074.4722 deg Mean motion: 13.83619555 rev/day Decay rate: 9.3e-07 rev/day^2 Epoch rev: 71191 Checksum: 323
Satellite: OKEAN-4 Catalog number: 23317 Epoch time: 07279.41056685 Element set: 390 Inclination: 082.5410 deg RA of node: 192.7700 deg Eccentricity: 0.0020500 Arg of perigee: 245.4726 deg Mean anomaly: 114.4366 deg Mean motion: 14.82538750 rev/day Decay rate: 2.31e-06 rev/day^2 Epoch rev: 70053 Checksum: 274
Satellite: NOAA-14 Catalog number: 23455 Epoch time: 07278.77077761 Element set: 0845 Inclination: 098.9788 deg RA of node: 345.4862 deg Eccentricity: 0.0010071 Arg of perigee: 143.4718 deg Mean anomaly: 216.7140 deg Mean motion: 14.13724723 rev/day Decay rate: -3.64e-06 rev/day^2 Epoch rev: 65826 Checksum: 331
Satellite: SICH-1 Catalog number: 23657 Epoch time: 07278.71723054 Element set: 0190 Inclination: 082.5299 deg RA of node: 334.3751 deg Eccentricity: 0.0022399 Arg of perigee: 237.8261 deg Mean anomaly: 122.0794 deg Mean motion: 14.81515713 rev/day Decay rate: 3.0e-07 rev/day^2 Epoch rev: 65239 Checksum: 302
Satellite: NOAA-15 Catalog number: 25338 Epoch time: 07278.57675770 Element set: 0189 Inclination: 098.5405 deg RA of node: 272.1918 deg Eccentricity: 0.0011579 Arg of perigee: 069.6460 deg Mean anomaly: 290.5956 deg Mean motion: 14.24666958 rev/day Decay rate: 3.3e-07 rev/day^2 Epoch rev: 48840 Checksum: 356
Satellite: RESURS Catalog number: 25394 Epoch time: 07278.72386123 Element set: 753 Inclination: 098.4264 deg RA of node: 328.8104 deg Eccentricity: 0.0000686 Arg of perigee: 195.9773 deg Mean anomaly: 164.1385 deg Mean motion: 14.24146472 rev/day Decay rate: .00000000 rev/day^2 Epoch rev: 48008 Checksum: 299
Satellite: FENGYUN1 Catalog number: 25730 Epoch time: 07278.95621471 Element set: 0241 Inclination: 098.6992 deg RA of node: 258.6763 deg Eccentricity: 0.0018135 Arg of perigee: 168.0903 deg Mean anomaly: 192.0702 deg Mean motion: 14.07614743 rev/day Decay rate: 1.07e-06 rev/day^2 Epoch rev: 43305 Checksum: 299
Satellite: OKEAN-0 Catalog number: 25860 Epoch time: 07278.51523092 Element set: 0177 Inclination: 097.7371 deg RA of node: 275.6437 deg Eccentricity: 0.0001796 Arg of perigee: 052.9064 deg Mean anomaly: 307.2305 deg Mean motion: 14.73476463 rev/day Decay rate: 3.6e-07 rev/day^2 Epoch rev: 44174 Checksum: 309
Satellite: NOAA-16 Catalog number: 26536 Epoch time: 07278.55592691 Element set: 0629 Inclination: 099.1308 deg RA of node: 257.4873 deg Eccentricity: 0.0009997 Arg of perigee: 220.5990 deg Mean anomaly: 139.4422 deg Mean motion: 14.12454612 rev/day Decay rate: 1.53e-06 rev/day^2 Epoch rev: 36268 Checksum: 338
Satellite: NOAA-17 Catalog number: 27453 Epoch time: 07278.77161709 Element set: 0628 Inclination: 098.5690 deg RA of node: 345.3654 deg Eccentricity: 0.0012620 Arg of perigee: 130.0602 deg Mean anomaly: 230.1671 deg Mean motion: 14.23913800 rev/day Decay rate: 4.5e-07 rev/day^2 Epoch rev: 27445 Checksum: 290
Satellite: NOAA-18 Catalog number: 28654 Epoch time: 07278.79712304 Element set: 0151 Inclination: 098.8359 deg RA of node: 218.2590 deg Eccentricity: 0.0013860 Arg of perigee: 319.3153 deg Mean anomaly: 040.6976 deg Mean motion: 14.11100057 rev/day Decay rate: 1.3e-07 rev/day^2 Epoch rev: 12245 Checksum: 291
/EX SB KEPS @ AMSAT $ORB07279.M Orbital Elements 07279.MISC
HR AMSAT ORBITAL ELEMENTS FOR MANNED AND MISCELLANEOUS SATELLITES FROM WA5QGD FORT WORTH,TX October 6, 2007 Send Subscribe/unsubscribe to KEPS at http://www.amsat.org/mailman/listinfo/keps BID: ORB07279.M TO ALL RADIO AMATEURS BT
Satellite: HUBBLE Catalog number: 20580 Epoch time: 07278.97005833 Element set: 0979 Inclination: 028.4679 deg RA of node: 187.6992 deg Eccentricity: 0.0003971 Arg of perigee: 191.6596 deg Mean anomaly: 168.3894 deg Mean motion: 15.00286790 rev/day Decay rate: 4.06e-06 rev/day^2 Epoch rev: 75661 Checksum: 355
Satellite: UARS Catalog number: 21701 Epoch time: 07279.24260452 Element set: 185 Inclination: 056.9732 deg RA of node: 191.6817 deg Eccentricity: 0.0094671 Arg of perigee: 049.8745 deg Mean anomaly: 311.0558 deg Mean motion: 15.49149248 rev/day Decay rate: 8.065e-05 rev/day^2 Epoch rev: 88295 Checksum: 333
Satellite: PO-34 Catalog number: 25520 Epoch time: 07279.55244121 Element set: 838 Inclination: 028.4590 deg RA of node: 083.3694 deg Eccentricity: 0.0004806 Arg of perigee: 030.3932 deg Mean anomaly: 329.6859 deg Mean motion: 15.17058432 rev/day Decay rate: 3.67e-06 rev/day^2 Epoch rev: 49445 Checksum: 318
Satellite: ISS Catalog number: 25544 Epoch time: 07278.94980191 Element set: 0105 Inclination: 051.6346 deg RA of node: 252.5333 deg Eccentricity: 0.0003174 Arg of perigee: 067.8792 deg Mean anomaly: 342.5544 deg Mean motion: 15.75431200 rev/day Decay rate: 1.0345e-04 rev/day^2 Epoch rev: 50825 Checksum: 288
Satellite: OO-38 Catalog number: 26063 Epoch time: 07278.62006482 Element set: 0028 Inclination: 100.2273 deg RA of node: 301.6471 deg Eccentricity: 0.0036592 Arg of perigee: 208.7481 deg Mean anomaly: 151.1683 deg Mean motion: 14.35815916 rev/day Decay rate: -5.8e-07 rev/day^2 Epoch rev: 40289 Checksum: 298
Satellite: UWE-1 Catalog number: 28892 Epoch time: 07278.38109402 Element set: 0866 Inclination: 098.1173 deg RA of node: 172.7558 deg Eccentricity: 0.0018433 Arg of perigee: 126.2908 deg Mean anomaly: 233.9980 deg Mean motion: 14.59545529 rev/day Decay rate: 1.07e-06 rev/day^2 Epoch rev: 10328 Checksum: 327
Satellite: CO-58 Catalog number: 28895 Epoch time: 07279.24756054 Element set: 842 Inclination: 098.1213 deg RA of node: 173.8586 deg Eccentricity: 0.0018880 Arg of perigee: 124.0024 deg Mean anomaly: 236.3002 deg Mean motion: 14.59589399 rev/day Decay rate: 1.40e-06 rev/day^2 Epoch rev: 10329 Checksum: 325
Satellite: NCUBE2 Catalog number: 28897 Epoch time: 07279.24138019 Element set: 369 Inclination: 098.1178 deg RA of node: 173.8008 deg Eccentricity: 0.0017813 Arg of perigee: 124.6559 deg Mean anomaly: 235.6350 deg Mean motion: 14.59754381 rev/day Decay rate: 1.31e-06 rev/day^2 Epoch rev: 9557 Checksum: 331
Satellite: FCAL Catalog number: 29667 Epoch time: 07279.31351900 Element set: 380 Inclination: 051.6298 deg RA of node: 229.8503 deg Eccentricity: 0.0013839 Arg of perigee: 064.1671 deg Mean anomaly: 296.0769 deg Mean motion: 15.92351872 rev/day Decay rate: 2.7298e-04 rev/day^2 Epoch rev: 4568 Checksum: 337
Satellite: FALCON Catalog number: 30776 Epoch time: 07278.34298364 Element set: 0162 Inclination: 035.4340 deg RA of node: 264.8567 deg Eccentricity: 0.0001796 Arg of perigee: 324.4839 deg Mean anomaly: 035.5757 deg Mean motion: 15.02775260 rev/day Decay rate: 2.93e-06 rev/day^2 Epoch rev: 03163 Checksum: 311
Satellite: MAST Catalog number: 31126 Epoch time: 07279.23949256 Element set: 150 Inclination: 098.0736 deg RA of node: 348.4201 deg Eccentricity: 0.0095447 Arg of perigee: 042.3731 deg Mean anomaly: 318.4762 deg Mean motion: 14.53368524 rev/day Decay rate: 3.43e-06 rev/day^2 Epoch rev: 2498 Checksum: 302
Satellite: CAPE1 Catalog number: 31130 Epoch time: 07278.17459388 Element set: 132 Inclination: 098.0729 deg RA of node: 346.9935 deg Eccentricity: 0.0103659 Arg of perigee: 046.7228 deg Mean anomaly: 314.2550 deg Mean motion: 14.51889863 rev/day Decay rate: 1.60e-06 rev/day^2 Epoch rev: 2457 Checksum: 318
/EX